Starlink 4293

operational
NORAD ID: 52989 Int'l Des: 2022-076 Owner: SPXS Country: US Constellation: starlink
LEOCIRCULAR

Über Starlink 4293

Beschreibung wird geladen...

Live-Position

3D-Globus wird geladen...

Nächste Überflüge

Höhenverlauf

Altitude vs Time

uPlot chart will show altitude changes over time

Zweizeiliger Elementsatz

1 52989U 22076D 25306.30144902 -.00000038 00000-0 15701-4 0 9999
2 52989 53.2174 315.9866 0001404 88.3043 271.8110 15.08839980183474
Epoch: 2. Nov. 2025 • Age: 15 hours

Aktueller Status

Höhe 541.7 km
Geschwindigkeit 7.60 km/s
Subsatellitenpunkt 35.35°N, 86.94°E
Startdatum 7. Juli 2022
Alter 3.3 years
Typ internet

Technische Details

Klassifizierung Payload
Masse 297.00 kg
Trockenmasse 275.00 kg
Gesamtmasse 297.00 kg
Länge 0.20 m
Durchmesser 2.80 m
Spannweite 9.00 m
Form Box + pan
Hersteller SPXS
Bus-Typ Starlink
Phasenstatus In Orbit
Besitzer/Staat SPXS/US

Große Konstellationen

Loading constellations...